Location: Oberwangen
(47.4286°N, 8.9679°E)
Time: 02:27:45
(UTC+00:00)

Cosmos 1844 - Visible Passes

Search period start: 23 October 2021 00:00
Search period end: 02 November 2021 00:00
Orbit: 821 x 869 km, 70.9° (Epoch: 22 October)

Date Brightness Start Highest point End Pass type
(mag) Time Alt. Az. Time Alt. Az. Time Alt. Az.
23 Oct 5.1 16:45:27 10° N 16:49:36 20° NE 16:53:44 10° E visible
23 Oct 3.6 18:28:50 10° NNW 18:34:41 84° ENE 18:36:47 41° SSE visible
23 Oct 6.0 20:14:31 10° WNW 20:18:02 17° W 20:18:43 16° WSW visible
24 Oct 3.6 18:14:50 10° NNW 18:20:40 82° ENE 18:23:55 27° SSE visible
24 Oct 6.0 20:00:26 10° WNW 20:04:03 17° W 20:05:51 15° WSW visible
25 Oct 3.6 18:00:50 10° NNW 18:06:40 80° ENE 18:11:17 16° SSE visible
25 Oct 6.1 19:46:22 10° WNW 19:50:05 18° W 19:53:15 12° SW visible
26 Oct 3.6 17:46:50 10° NNW 17:52:40 78° ENE 17:58:23 10° SSE visible
26 Oct 6.1 19:32:17 10° WNW 19:36:06 18° W 19:39:52 10° SW visible
27 Oct 3.7 17:32:50 10° NNW 17:38:39 76° ENE 17:44:22 10° SSE visible
27 Oct 6.1 19:18:13 10° WNW 19:22:07 19° W 19:25:59 10° SW visible
28 Oct 3.7 17:18:50 10° NNW 17:24:39 74° ENE 17:30:21 10° SSE visible
28 Oct 6.1 19:04:09 10° NW 19:08:09 20° W 19:12:05 10° SW visible
29 Oct 3.7 17:04:50 10° NNW 17:10:38 72° ENE 17:16:20 10° SE visible
29 Oct 6.2 18:50:05 10° NW 18:54:09 20° W 18:58:10 10° SW visible
30 Oct 3.7 16:50:50 10° NNW 16:56:37 70° ENE 17:02:19 10° SE visible
30 Oct 6.2 18:36:02 10° NW 18:40:11 21° W 18:44:16 10° SSW visible
31 Oct 3.7 16:36:50 10° NNW 16:42:37 68° ENE 16:48:18 10° SE visible
31 Oct 6.2 18:21:58 10° NW 18:26:12 21° W 18:30:22 10° SSW visible
01 Nov 6.2 18:07:55 10° NW 18:12:12 22° W 18:16:27 10° SSW visible
